GW4222 Weather Reports


Display with metric or nautical units.
time (UTC)temp
F
wind
direction
speed
MPH
gust
MPH
rain 1hr
in
rain 24hr
in
rain mn
in
humidity
%
barometer
mb
20260510220009 63 244 1.0 9.0 0.00 0.07 0.07 37 1011.4
20260510214506 63 179 3.0 9.0 0.00 0.07 0.07 36 1011.1
20260510213004 63 154 3.0 7.0 0.00 0.07 0.07 35 1011.0
20260510211523 64 184 1.0 10.0 0.00 0.07 0.07 36 1011.0
20260510210018 65 96 5.0 15.0 0.00 0.07 0.07 36 1011.0
20260510204517 66 183 2.0 8.0 0.00 0.07 0.07 37 1010.7
20260510203012 65 149 1.0 11.0 0.00 0.07 0.07 40 1010.7
20260510201510 64 155 5.0 12.0 0.00 0.07 0.07 37 1010.8
20260510194525 63 182 1.0 15.0 0.00 0.07 0.07 40 1010.7
20260510193021 64 205 4.0 10.0 0.00 0.07 0.07 43 1010.7
20260510191520 62 208 5.0 11.0 0.00 0.07 0.07 43 1010.9
20260510190017 62 193 4.0 12.0 0.00 0.07 0.07 45 1011.0
20260510184514 62 62 3.0 13.0 0.00 0.07 0.07 46 1011.1
20260510183013 63 126 5.0 14.0 0.00 0.07 0.07 44 1011.0
20260510181510 62 163 4.0 9.0 0.00 0.07 0.07 54 1010.9
20260510180005 61 182 3.0 9.0 0.00 0.07 0.07 66 1010.8
20260510174526 58 173 3.0 9.0 0.00 0.07 0.07 70 1011.1
20260510173018 57 286 1.0 4.0 0.00 0.07 0.07 75 1011.1
20260510171528 57 174 0.0 2.0 0.00 0.07 0.07 80 1011.3
20260510164529 56 360 1.0 4.0 0.00 0.07 0.07 79 1011.2
20260510163028 57 36 2.0 4.0 0.00 0.07 0.07 78 1011.0
20260510160035 59 224 5.0 9.0 0.00 0.07 0.07 74 1010.7
20260510153019 57 186 4.0 19.0 0.01 0.07 0.07 81 1010.5
20260510151516 57 102 2.0 6.0 0.01 0.07 0.07 86 1010.6
20260510150032 56 186 1.0 5.0 0.01 0.07 0.07 88 1010.5
20260510144533 57 173 3.0 14.0 0.00 0.06 0.06 81 1010.4
20260510141506 55 267 0.0 2.0 0.00 0.06 0.06 89 1010.2
20260510140021 55 273 0.0 2.0 0.00 0.06 0.06 89 1010.3
20260510134521 55 252 0.0 2.0 0.00 0.06 0.06 89 1010.2
20260510133016 55 188 1.0 5.0 0.00 0.06 0.06 84 1010.2
20260510131512 54 133 3.0 6.0 0.00 0.06 0.06 85 1010.3
20260510130011 54 9 2.0 6.0 0.00 0.06 0.06 88 1009.9
20260510124529 54 207 3.0 7.0 0.00 0.06 0.06 89 1010.4
20260510123025 53 208 1.0 6.0 0.00 0.06 0.06 92 1010.6
20260510121520 51 242 1.0 2.0 0.00 0.06 0.06 94 1010.4
20260510120025 50 350 0.0 2.0 0.00 0.06 0.06 96 1010.4
20260510114525 49 347 1.0 3.0 0.00 0.06 0.06 96 1010.3
20260510111526 47 163 0.0 2.0 0.00 0.06 0.06 96 1010.0
20260510110025 46 163 0.0 2.0 0.00 0.06 0.06 95 1010.0
20260510104522 46 69 1.0 2.0 0.00 0.06 0.06 95 1009.8
20260510103028 45 76 0.0 2.0 0.00 0.06 0.06 95 1009.1
20260510094540 46 14 0.0 2.0 0.00 0.06 0.06 94 1009.1
20260510093024 47 15 1.0 2.0 0.01 0.06 0.06 94 1008.9
20260510090007 47 5 0.0 1.0 0.06 0.06 0.06 94 1008.8
20260510084514 48 5 1.0 1.0 0.06 0.06 0.06 94 1008.6
20260510083003 48 5 1.0 1.0 0.05 0.05 0.05 93 1009.1
20260510081505 48 295 0.0 2.0 0.04 0.04 0.04 93 1009.3
20260510080028 48 295 0.0 2.0 0.00 0.00 0.00 91 1009.3
20260510074513 49 295 0.0 2.0 0.00 0.00 0.00 90 1009.1
20260510073017 49 295 0.0 2.0 0.00 0.00 0.00 90 1009.0
20260510071506 49 238 1.0 2.0 0.00 0.00 0.00 89 1009.2
20260510070004 49 198 0.0 4.0 0.00 0.00 0.00 89 1009.3
20260510064504 49 201 0.0 2.0 0.00 0.00 0.00 89 1009.3
20260510063019 49 171 0.0 2.0 0.00 0.00 0.00 89 1009.0
20260510061515 49 192 0.0 6.0 0.00 0.00 0.00 89 1009.2
20260510060012 49 180 1.0 3.0 0.00 0.00 0.00 89 1009.2
20260510054510 49 230 1.0 5.0 0.00 0.00 0.00 89 1009.5
20260510053008 49 162 0.0 4.0 0.00 0.00 0.00 89 1009.5
20260510051505 49 152 0.0 3.0 0.00 0.00 0.00 89 1009.4
20260510050021 48 145 1.0 4.0 0.00 0.00 0.00 88 1009.4
20260510044517 48 198 1.0 6.0 0.00 0.00 0.00 88 1009.5
20260510043014 48 180 2.0 7.0 0.00 0.00 0.00 88 1009.5
20260510041512 48 182 3.0 7.0 0.00 0.00 0.00 88 1009.2
20260510040007 48 165 3.0 6.0 0.00 0.00 0.00 88 1009.3
20260510033028 48 196 2.0 5.0 0.00 0.00 0.00 88 1009.7
20260510031522 48 182 2.0 6.0 0.00 0.00 0.00 88 1009.5
20260510030023 48 179 1.0 3.0 0.00 0.00 0.00 87 1009.6
20260510024518 48 219 2.0 4.0 0.00 0.00 0.00 87 1009.8
20260510023028 48 184 3.0 7.0 0.00 0.00 0.00 87 1009.8
20260510020026 48 182 3.0 7.0 0.00 0.00 0.00 86 1009.7
20260510014525 49 179 3.0 7.0 0.00 0.00 0.00 86 1010.0
20260510013032 48 179 3.0 7.0 0.00 0.00 0.00 86 1010.2
20260510011520 49 186 2.0 7.0 0.00 0.00 0.00 85 1010.1
20260510004514 49 178 1.0 4.0 0.00 0.00 0.00 85 1010.2
20260510003035 49 228 1.0 4.0 0.00 0.00 0.00 85 1010.0
20260510001504 49 190 3.0 6.0 0.00 0.00 0.00 85 1009.8
20260510000004 49 178 2.0 4.0 0.00 0.00 0.00 85 1010.0
20260509234504 49 192 0.0 3.0 0.00 0.00 0.00 85 1009.8
20260509233003 49 192 1.0 4.0 0.00 0.00 0.00 84 1009.8
20260509231511 49 182 2.0 5.0 0.00 0.00 0.00 84 1009.8
20260509230003 49 196 1.0 5.0 0.00 0.00 0.00 85 1009.8
20260509224504 49 203 1.0 3.0 0.00 0.00 0.00 83 1009.9
20260509223005 49 298 1.0 3.0 0.00 0.00 0.00 84 1009.9